Year,Month,Day,Hour,Minute,Value (Times are PST for barometer in hPa)
2009,05,05,00,00,991.42
2009,05,05,00,01,991.43
2009,05,05,00,02,991.43
2009,05,05,00,03,991.43
2009,05,05,00,04,991.43
2009,05,05,00,05,991.43
2009,05,05,00,06,991.43
2009,05,05,00,07,991.43
2009,05,05,00,08,991.43
2009,05,05,00,09,991.43
2009,05,05,00,10,991.43
2009,05,05,00,11,991.43
2009,05,05,00,12,991.43
2009,05,05,00,13,991.43
2009,05,05,00,14,991.43
2009,05,05,00,15,991.40
2009,05,05,00,16,991.40
2009,05,05,00,17,991.40
2009,05,05,00,18,991.40
2009,05,05,00,19,991.40
2009,05,05,00,20,991.40
2009,05,05,00,21,991.40
2009,05,05,00,22,991.40
2009,05,05,00,23,991.40
2009,05,05,00,24,991.40
2009,05,05,00,25,991.40
2009,05,05,00,26,991.40
2009,05,05,00,27,991.40
2009,05,05,00,28,991.40
2009,05,05,00,29,991.40
2009,05,05,00,30,991.43
2009,05,05,00,31,991.43
2009,05,05,00,32,991.43
2009,05,05,00,33,991.43
2009,05,05,00,34,991.43
2009,05,05,00,35,991.43
2009,05,05,00,36,991.43
2009,05,05,00,37,991.43
2009,05,05,00,38,991.43
2009,05,05,00,39,991.43
2009,05,05,00,40,991.43
2009,05,05,00,41,991.43
2009,05,05,00,42,991.43
2009,05,05,00,43,991.43
2009,05,05,00,44,991.45
2009,05,05,00,45,991.91
2009,05,05,00,46,991.91
2009,05,05,00,47,991.91
2009,05,05,00,48,991.91
2009,05,05,00,49,991.91
2009,05,05,00,50,991.91
2009,05,05,00,51,991.91
2009,05,05,00,52,991.91
2009,05,05,00,53,991.91
2009,05,05,00,54,991.91
2009,05,05,00,55,991.91
2009,05,05,00,56,991.91
2009,05,05,00,57,991.91
2009,05,05,00,58,991.91
2009,05,05,00,59,991.91
2009,05,05,01,00,992.08
2009,05,05,01,01,992.08
2009,05,05,01,02,992.08
2009,05,05,01,03,992.08
2009,05,05,01,04,992.08
2009,05,05,01,05,992.08
2009,05,05,01,06,992.08
2009,05,05,01,07,992.08
2009,05,05,01,08,992.08
2009,05,05,01,09,992.08
2009,05,05,01,10,992.08
2009,05,05,01,11,992.08
2009,05,05,01,12,992.08
2009,05,05,01,13,992.08
2009,05,05,01,14,992.08
2009,05,05,01,15,992.18
2009,05,05,01,16,992.18
2009,05,05,01,17,992.18
2009,05,05,01,18,992.18
2009,05,05,01,19,992.18
2009,05,05,01,20,992.18
2009,05,05,01,21,992.18
2009,05,05,01,22,992.18
2009,05,05,01,23,992.18
2009,05,05,01,24,992.18
2009,05,05,01,25,992.18
2009,05,05,01,26,992.18
2009,05,05,01,27,992.18
2009,05,05,01,28,992.18
2009,05,05,01,29,992.19
2009,05,05,01,30,992.45
2009,05,05,01,31,992.45
2009,05,05,01,32,992.45
2009,05,05,01,33,992.45
2009,05,05,01,34,992.45
2009,05,05,01,35,992.45
2009,05,05,01,36,992.45
2009,05,05,01,37,992.45
2009,05,05,01,38,992.45
2009,05,05,01,39,992.45
2009,05,05,01,40,992.45
2009,05,05,01,41,992.45
2009,05,05,01,42,992.45
2009,05,05,01,43,992.45
2009,05,05,01,44,992.45
2009,05,05,01,45,992.38
2009,05,05,01,46,992.38
2009,05,05,01,47,992.38
2009,05,05,01,48,992.38
2009,05,05,01,49,992.38
2009,05,05,01,50,992.38
2009,05,05,01,51,992.38
2009,05,05,01,52,992.38
2009,05,05,01,53,992.38
2009,05,05,01,54,992.38
2009,05,05,01,55,992.38
2009,05,05,01,56,992.38
2009,05,05,01,57,992.38
2009,05,05,01,58,992.38
2009,05,05,01,59,992.39
2009,05,05,02,00,992.55
2009,05,05,02,01,992.55
2009,05,05,02,02,992.55
2009,05,05,02,03,992.55
2009,05,05,02,04,992.55
2009,05,05,02,05,992.55
2009,05,05,02,06,992.55
2009,05,05,02,07,992.55
2009,05,05,02,08,992.55
2009,05,05,02,09,992.55
2009,05,05,02,10,992.55
2009,05,05,02,11,992.55
2009,05,05,02,12,992.55
2009,05,05,02,13,992.55
2009,05,05,02,14,992.55
2009,05,05,02,15,992.52
2009,05,05,02,16,992.52
2009,05,05,02,17,992.52
2009,05,05,02,18,992.52
2009,05,05,02,19,992.52
2009,05,05,02,20,992.52
2009,05,05,02,21,992.52
2009,05,05,02,22,992.52
2009,05,05,02,23,992.52
2009,05,05,02,24,992.52
2009,05,05,02,25,992.52
2009,05,05,02,26,992.52
2009,05,05,02,27,992.52
2009,05,05,02,28,992.52
2009,05,05,02,29,992.52
2009,05,05,02,30,992.55
2009,05,05,02,31,992.55
2009,05,05,02,32,992.55
2009,05,05,02,33,992.55
2009,05,05,02,34,992.55
2009,05,05,02,35,992.55
2009,05,05,02,36,992.55
2009,05,05,02,37,992.55
2009,05,05,02,38,992.55
2009,05,05,02,39,992.55
2009,05,05,02,40,992.55
2009,05,05,02,41,992.55
2009,05,05,02,42,992.55
2009,05,05,02,43,992.55
2009,05,05,02,44,992.56
2009,05,05,02,45,992.89
2009,05,05,02,46,992.89
2009,05,05,02,47,992.89
2009,05,05,02,48,992.89
2009,05,05,02,49,992.89
2009,05,05,02,50,992.89
2009,05,05,02,51,992.89
2009,05,05,02,52,992.89
2009,05,05,02,53,992.89
2009,05,05,02,54,992.89
2009,05,05,02,55,992.89
2009,05,05,02,56,992.89
2009,05,05,02,57,992.89
2009,05,05,02,58,992.89
2009,05,05,02,59,992.89
2009,05,05,03,00,993.16
2009,05,05,03,01,993.16
2009,05,05,03,02,993.16
2009,05,05,03,03,993.16
2009,05,05,03,04,993.16
2009,05,05,03,05,993.16
2009,05,05,03,06,993.16
2009,05,05,03,07,993.16
2009,05,05,03,08,993.16
2009,05,05,03,09,993.16
2009,05,05,03,10,993.16
2009,05,05,03,11,993.16
2009,05,05,03,12,993.16
2009,05,05,03,13,993.16
2009,05,05,03,14,993.16
2009,05,05,03,15,993.53
2009,05,05,03,16,993.53
2009,05,05,03,17,993.53
2009,05,05,03,18,993.53
2009,05,05,03,19,993.53
2009,05,05,03,20,993.53
2009,05,05,03,21,993.53
2009,05,05,03,22,993.53
2009,05,05,03,23,993.53
2009,05,05,03,24,993.53
2009,05,05,03,25,993.53
2009,05,05,03,26,993.53
2009,05,05,03,27,993.53
2009,05,05,03,28,993.53
2009,05,05,03,29,993.57
2009,05,05,03,30,994.31
2009,05,05,03,31,994.31
2009,05,05,03,32,994.31
2009,05,05,03,33,994.31
2009,05,05,03,34,994.31
2009,05,05,03,35,994.31
2009,05,05,03,36,994.31
2009,05,05,03,37,994.31
2009,05,05,03,38,994.31
2009,05,05,03,39,994.31
2009,05,05,03,40,994.31
2009,05,05,03,41,994.31
2009,05,05,03,42,994.31
2009,05,05,03,43,994.31
2009,05,05,03,44,994.30
2009,05,05,03,45,994.07
2009,05,05,03,46,994.07
2009,05,05,03,47,994.07
2009,05,05,03,48,994.07
2009,05,05,03,49,994.07
2009,05,05,03,50,994.07
2009,05,05,03,51,994.07
2009,05,05,03,52,994.07
2009,05,05,03,53,994.07
2009,05,05,03,54,994.07
2009,05,05,03,55,994.07
2009,05,05,03,56,994.07
2009,05,05,03,57,994.07
2009,05,05,03,58,994.07
2009,05,05,03,59,994.07
2009,05,05,04,00,994.58
2009,05,05,04,01,994.58
2009,05,05,04,02,994.58
2009,05,05,04,03,994.58
2009,05,05,04,04,994.58
2009,05,05,04,05,994.58
2009,05,05,04,06,994.58
2009,05,05,04,07,994.58
2009,05,05,04,08,994.58
2009,05,05,04,09,994.58
2009,05,05,04,10,994.58
2009,05,05,04,11,994.58
2009,05,05,04,12,994.58
2009,05,05,04,13,994.58
2009,05,05,04,14,994.58
2009,05,05,04,15,994.82
2009,05,05,04,16,994.82
2009,05,05,04,17,994.82
2009,05,05,04,18,994.82
2009,05,05,04,19,994.82
2009,05,05,04,20,994.82
2009,05,05,04,21,994.82
2009,05,05,04,22,994.82
2009,05,05,04,23,994.82
2009,05,05,04,24,994.82
2009,05,05,04,25,994.82
2009,05,05,04,26,994.82
2009,05,05,04,27,994.82
2009,05,05,04,28,994.82
2009,05,05,04,29,994.82
2009,05,05,04,30,995.09
2009,05,05,04,31,995.09
2009,05,05,04,32,995.09
2009,05,05,04,33,995.09
2009,05,05,04,34,995.09
2009,05,05,04,35,995.09
2009,05,05,04,36,995.09
2009,05,05,04,37,995.09
2009,05,05,04,38,995.09
2009,05,05,04,39,995.09
2009,05,05,04,40,995.09
2009,05,05,04,41,995.09
2009,05,05,04,42,995.09
2009,05,05,04,43,995.09
2009,05,05,04,44,995.09
2009,05,05,04,45,995.36
2009,05,05,04,46,995.36
2009,05,05,04,47,995.36
2009,05,05,04,48,995.36
2009,05,05,04,49,995.36
2009,05,05,04,50,995.36
2009,05,05,04,51,995.36
2009,05,05,04,52,995.36
2009,05,05,04,53,995.36
2009,05,05,04,54,995.36
2009,05,05,04,55,995.36
2009,05,05,04,56,995.36
2009,05,05,04,57,995.36
2009,05,05,04,58,995.36
2009,05,05,04,59,995.36
2009,05,05,05,00,995.63
2009,05,05,05,01,995.63
2009,05,05,05,02,995.63
2009,05,05,05,03,995.63
2009,05,05,05,04,995.63
2009,05,05,05,05,995.63
2009,05,05,05,06,995.63
2009,05,05,05,07,995.63
2009,05,05,05,08,995.63
2009,05,05,05,09,995.63
2009,05,05,05,10,995.63
2009,05,05,05,11,995.63
2009,05,05,05,12,995.63
2009,05,05,05,13,995.63
2009,05,05,05,14,995.63
2009,05,05,05,15,995.63
2009,05,05,05,16,995.63
2009,05,05,05,17,995.63
2009,05,05,05,18,995.63
2009,05,05,05,19,995.63
2009,05,05,05,20,995.63
2009,05,05,05,21,995.63
2009,05,05,05,22,995.63
2009,05,05,05,23,995.63
2009,05,05,05,24,995.63
2009,05,05,05,25,995.63
2009,05,05,05,26,995.63
2009,05,05,05,27,995.63
2009,05,05,05,28,995.63
2009,05,05,05,29,995.63
2009,05,05,05,30,996.01
2009,05,05,05,31,996.01
2009,05,05,05,32,996.01
2009,05,05,05,33,996.01
2009,05,05,05,34,996.01
2009,05,05,05,35,996.01
2009,05,05,05,36,996.01
2009,05,05,05,37,996.01
2009,05,05,05,38,996.01
2009,05,05,05,39,996.01
2009,05,05,05,40,996.01
2009,05,05,05,41,996.01
2009,05,05,05,42,996.01
2009,05,05,05,43,996.01
2009,05,05,05,44,996.01
2009,05,05,05,45,996.31
2009,05,05,05,46,996.31
2009,05,05,05,47,996.31
2009,05,05,05,48,996.31
2009,05,05,05,49,996.31
2009,05,05,05,50,996.31
2009,05,05,05,51,996.31
2009,05,05,05,52,996.31
2009,05,05,05,53,996.31
2009,05,05,05,54,996.31
2009,05,05,05,55,996.31
2009,05,05,05,56,996.31
2009,05,05,05,57,996.31
2009,05,05,05,58,996.31
2009,05,05,05,59,996.31
2009,05,05,06,00,996.72
2009,05,05,06,01,996.72
2009,05,05,06,02,996.72
2009,05,05,06,03,996.72
2009,05,05,06,04,996.72
2009,05,05,06,05,996.72
2009,05,05,06,06,996.72
2009,05,05,06,07,996.72
2009,05,05,06,08,996.72
2009,05,05,06,09,996.72
2009,05,05,06,10,996.72
2009,05,05,06,11,996.72
2009,05,05,06,12,996.72
2009,05,05,06,13,996.72
2009,05,05,06,14,996.72
2009,05,05,06,15,996.95
2009,05,05,06,16,996.95
2009,05,05,06,17,996.95
2009,05,05,06,18,996.95
2009,05,05,06,19,996.95
2009,05,05,06,20,996.95
2009,05,05,06,21,996.95
2009,05,05,06,22,996.95
2009,05,05,06,23,996.95
2009,05,05,06,24,996.95
2009,05,05,06,25,996.95
2009,05,05,06,26,996.95
2009,05,05,06,27,996.95
2009,05,05,06,28,996.95
2009,05,05,06,29,996.95
2009,05,05,06,30,997.73
2009,05,05,06,31,997.73
2009,05,05,06,32,997.73
2009,05,05,06,33,997.73
2009,05,05,06,34,997.73
2009,05,05,06,35,997.73
2009,05,05,06,36,997.73
2009,05,05,06,37,997.73
2009,05,05,06,38,997.73
2009,05,05,06,39,997.73
2009,05,05,06,40,997.73
2009,05,05,06,41,997.73
2009,05,05,06,42,997.73
2009,05,05,06,43,997.73
2009,05,05,06,44,997.73
2009,05,05,06,45,998.21
2009,05,05,06,46,998.21
2009,05,05,06,47,998.21
2009,05,05,06,48,998.21
2009,05,05,06,49,998.21
2009,05,05,06,50,998.21
2009,05,05,06,51,998.21
2009,05,05,06,52,998.21
2009,05,05,06,53,998.21
2009,05,05,06,54,998.21
2009,05,05,06,55,998.21
2009,05,05,06,56,998.21
2009,05,05,06,57,998.21
2009,05,05,06,58,998.21
2009,05,05,06,59,998.21
2009,05,05,07,00,998.51
2009,05,05,07,01,998.51
2009,05,05,07,02,998.51
2009,05,05,07,03,998.51
2009,05,05,07,04,998.51
2009,05,05,07,05,998.51
2009,05,05,07,06,998.51
2009,05,05,07,07,998.51
2009,05,05,07,08,998.51
2009,05,05,07,09,998.51
2009,05,05,07,10,998.51
2009,05,05,07,11,998.51
2009,05,05,07,12,998.51
2009,05,05,07,13,998.51
2009,05,05,07,14,998.51
2009,05,05,07,15,998.85
2009,05,05,07,16,998.85
2009,05,05,07,17,998.85
2009,05,05,07,18,998.85
2009,05,05,07,19,998.85
2009,05,05,07,20,998.85
2009,05,05,07,21,998.85
2009,05,05,07,22,998.85
2009,05,05,07,23,998.85
2009,05,05,07,24,998.85
2009,05,05,07,25,998.85
2009,05,05,07,26,998.85
2009,05,05,07,27,998.85
2009,05,05,07,28,998.85
2009,05,05,07,29,998.85
2009,05,05,07,30,999.39
2009,05,05,07,31,999.39
2009,05,05,07,32,999.39
2009,05,05,07,33,999.39
2009,05,05,07,34,999.39
2009,05,05,07,35,999.39
2009,05,05,07,36,999.39
2009,05,05,07,37,999.39
2009,05,05,07,38,999.39
2009,05,05,07,39,999.39
2009,05,05,07,40,999.39
2009,05,05,07,41,999.39
2009,05,05,07,42,999.39
2009,05,05,07,43,999.39
2009,05,05,07,44,999.39
2009,05,05,07,45,999.87
2009,05,05,07,46,999.87
2009,05,05,07,47,999.87
2009,05,05,07,48,999.87
2009,05,05,07,49,999.87
2009,05,05,07,50,999.87
2009,05,05,07,51,999.87
2009,05,05,07,52,999.87
2009,05,05,07,53,999.87
2009,05,05,07,54,999.87
2009,05,05,07,55,999.87
2009,05,05,07,56,999.87
2009,05,05,07,57,999.87
2009,05,05,07,58,999.87
2009,05,05,07,59,999.87
2009,05,05,08,00,1000.37
2009,05,05,08,01,1000.37
2009,05,05,08,02,1000.37
2009,05,05,08,03,1000.37
2009,05,05,08,04,1000.37
2009,05,05,08,05,1000.37
2009,05,05,08,06,1000.37
2009,05,05,08,07,1000.37
2009,05,05,08,08,1000.37
2009,05,05,08,09,1000.37
2009,05,05,08,10,1000.37
2009,05,05,08,11,1000.37
2009,05,05,08,12,1000.37
2009,05,05,08,13,1000.37
2009,05,05,08,14,1000.37
2009,05,05,08,15,1000.73
2009,05,05,08,16,1000.75
2009,05,05,08,17,1000.75
2009,05,05,08,18,1000.75
2009,05,05,08,19,1000.75
2009,05,05,08,20,1000.75
2009,05,05,08,21,1000.75
2009,05,05,08,22,1000.75
2009,05,05,08,23,1000.75
2009,05,05,08,24,1000.75
2009,05,05,08,25,1000.75
2009,05,05,08,26,1000.75
2009,05,05,08,27,1000.75
2009,05,05,08,28,1000.75
2009,05,05,08,29,1000.75
2009,05,05,08,30,1001.20
2009,05,05,08,31,1001.22
2009,05,05,08,32,1001.22
2009,05,05,08,33,1001.22
2009,05,05,08,34,1001.22
2009,05,05,08,35,1001.22
2009,05,05,08,36,1001.22
2009,05,05,08,37,1001.22
2009,05,05,08,38,1001.22
2009,05,05,08,39,1001.22
2009,05,05,08,40,1001.22
2009,05,05,08,41,1001.22
2009,05,05,08,42,1001.22
2009,05,05,08,43,1001.22
2009,05,05,08,44,1001.22
2009,05,05,08,45,1001.52
2009,05,05,08,46,1001.52
2009,05,05,08,47,1001.52
2009,05,05,08,48,1001.52
2009,05,05,08,49,1001.52
2009,05,05,08,50,1001.52
2009,05,05,08,51,1001.52
2009,05,05,08,52,1001.52
2009,05,05,08,53,1001.52
2009,05,05,08,54,1001.52
2009,05,05,08,55,1001.52
2009,05,05,08,56,1001.52
2009,05,05,08,57,1001.52
2009,05,05,08,58,1001.52
2009,05,05,08,59,1001.52
2009,05,05,09,00,1001.97
2009,05,05,09,01,1001.97
2009,05,05,09,02,1001.97
2009,05,05,09,03,1001.97
2009,05,05,09,04,1001.97
2009,05,05,09,05,1001.97
2009,05,05,09,06,1001.97
2009,05,05,09,07,1001.97
2009,05,05,09,08,1001.97
2009,05,05,09,09,1001.97
2009,05,05,09,10,1001.97
2009,05,05,09,11,1001.97
2009,05,05,09,12,1001.97
2009,05,05,09,13,1001.97
2009,05,05,09,14,1001.97
2009,05,05,09,15,1002.26
2009,05,05,09,16,1002.27
2009,05,05,09,17,1002.27
2009,05,05,09,18,1002.27
2009,05,05,09,19,1002.27
2009,05,05,09,20,1002.27
2009,05,05,09,21,1002.27
2009,05,05,09,22,1002.27
2009,05,05,09,23,1002.27
2009,05,05,09,24,1002.27
2009,05,05,09,25,1002.27
2009,05,05,09,26,1002.27
2009,05,05,09,27,1002.27
2009,05,05,09,28,1002.27
2009,05,05,09,29,1002.27
2009,05,05,09,30,1002.46
2009,05,05,09,31,1002.47
2009,05,05,09,32,1002.47
2009,05,05,09,33,1002.47
2009,05,05,09,34,1002.47
2009,05,05,09,35,1002.47
2009,05,05,09,36,1002.47
2009,05,05,09,37,1002.47
2009,05,05,09,38,1002.47
2009,05,05,09,39,1002.47
2009,05,05,09,40,1002.47
2009,05,05,09,41,1002.47
2009,05,05,09,42,1002.47
2009,05,05,09,43,1002.47
2009,05,05,09,44,1002.47
2009,05,05,09,45,1002.88
2009,05,05,09,46,1002.88
2009,05,05,09,47,1002.88
2009,05,05,09,48,1002.88
2009,05,05,09,49,1002.88
2009,05,05,09,50,1002.88
2009,05,05,09,51,1002.88
2009,05,05,09,52,1002.88
2009,05,05,09,53,1002.88
2009,05,05,09,54,1002.88
2009,05,05,09,55,1002.88
2009,05,05,09,56,1002.88
2009,05,05,09,57,1002.88
2009,05,05,09,58,1002.88
2009,05,05,09,59,1002.88
2009,05,05,10,00,1003.12
2009,05,05,10,01,1003.12
2009,05,05,10,02,1003.12
2009,05,05,10,03,1003.12
2009,05,05,10,04,1003.12
2009,05,05,10,05,1003.12
2009,05,05,10,06,1003.12
2009,05,05,10,07,1003.12
2009,05,05,10,08,1003.12
2009,05,05,10,09,1003.12
2009,05,05,10,10,1003.12
2009,05,05,10,11,1003.12
2009,05,05,10,12,1003.12
2009,05,05,10,13,1003.12
2009,05,05,10,14,1003.12
2009,05,05,10,15,1003.56
2009,05,05,10,16,1003.56
2009,05,05,10,17,1003.56
2009,05,05,10,18,1003.56
2009,05,05,10,19,1003.56
2009,05,05,10,20,1003.56
2009,05,05,10,21,1003.56
2009,05,05,10,22,1003.56
2009,05,05,10,23,1003.56
2009,05,05,10,24,1003.56
2009,05,05,10,25,1003.56
2009,05,05,10,26,1003.56
2009,05,05,10,27,1003.56
2009,05,05,10,28,1003.56
2009,05,05,10,29,1003.56
2009,05,05,10,30,1004.04
2009,05,05,10,31,1004.06
2009,05,05,10,32,1004.06
2009,05,05,10,33,1004.06
2009,05,05,10,34,1004.06
2009,05,05,10,35,1004.06
2009,05,05,10,36,1004.06
2009,05,05,10,37,1004.06
2009,05,05,10,38,1004.06
2009,05,05,10,39,1004.06
2009,05,05,10,40,1004.06
2009,05,05,10,41,1004.06
2009,05,05,10,42,1004.06
2009,05,05,10,43,1004.06
2009,05,05,10,44,1004.06
2009,05,05,10,45,1004.13
2009,05,05,10,46,1004.13
2009,05,05,10,47,1004.13
2009,05,05,10,48,1004.13
2009,05,05,10,49,1004.13
2009,05,05,10,50,1004.13
2009,05,05,10,51,1004.13
2009,05,05,10,52,1004.13
2009,05,05,10,53,1004.13
2009,05,05,10,54,1004.13
2009,05,05,10,55,1004.13
2009,05,05,10,56,1004.13
2009,05,05,10,57,1004.13
2009,05,05,10,58,1004.13
2009,05,05,10,59,1004.13
2009,05,05,11,00,1004.67
2009,05,05,11,01,1004.67
2009,05,05,11,02,1004.67
2009,05,05,11,03,1004.67
2009,05,05,11,04,1004.67
2009,05,05,11,05,1004.67
2009,05,05,11,06,1004.67
2009,05,05,11,07,1004.67
2009,05,05,11,08,1004.67
2009,05,05,11,09,1004.67
2009,05,05,11,10,1004.67
2009,05,05,11,11,1004.67
2009,05,05,11,12,1004.67
2009,05,05,11,13,1004.67
2009,05,05,11,14,1004.67
2009,05,05,11,15,1005.11
2009,05,05,11,16,1005.11
2009,05,05,11,17,1005.11
2009,05,05,11,18,1005.11
2009,05,05,11,19,1005.11
2009,05,05,11,20,1005.11
2009,05,05,11,21,1005.11
2009,05,05,11,22,1005.11
2009,05,05,11,23,1005.11
2009,05,05,11,24,1005.11
2009,05,05,11,25,1005.11
2009,05,05,11,26,1005.11
2009,05,05,11,27,1005.11
2009,05,05,11,28,1005.11
2009,05,05,11,29,1005.11
2009,05,05,11,30,1005.47
2009,05,05,11,31,1005.49
2009,05,05,11,32,1005.49
2009,05,05,11,33,1005.49
2009,05,05,11,34,1005.49
2009,05,05,11,35,1005.49
2009,05,05,11,36,1005.49
2009,05,05,11,37,1005.49
2009,05,05,11,38,1005.49
2009,05,05,11,39,1005.49
2009,05,05,11,40,1005.49
2009,05,05,11,41,1005.49
2009,05,05,11,42,1005.49
2009,05,05,11,43,1005.49
2009,05,05,11,44,1005.49
2009,05,05,11,45,1005.78
2009,05,05,11,46,1005.79
2009,05,05,11,47,1005.79
2009,05,05,11,48,1005.79
2009,05,05,11,49,1005.79
2009,05,05,11,50,1005.79
2009,05,05,11,51,1005.79
2009,05,05,11,52,1005.79
2009,05,05,11,53,1005.79
2009,05,05,11,54,1005.79
2009,05,05,11,55,1005.79
2009,05,05,11,56,1005.79
2009,05,05,11,57,1005.79
2009,05,05,11,58,1005.79
2009,05,05,11,59,1005.79
2009,05,05,12,00,1006.13
2009,05,05,12,01,1006.13
2009,05,05,12,02,1006.13
2009,05,05,12,03,1006.13
2009,05,05,12,04,1006.13
2009,05,05,12,05,1006.13
2009,05,05,12,06,1006.13
2009,05,05,12,07,1006.13
2009,05,05,12,08,1006.13
2009,05,05,12,09,1006.13
2009,05,05,12,10,1006.13
2009,05,05,12,11,1006.13
2009,05,05,12,12,1006.13
2009,05,05,12,13,1006.13
2009,05,05,12,14,1006.13
2009,05,05,12,15,1006.30
2009,05,05,12,16,1006.30
2009,05,05,12,17,1006.30
2009,05,05,12,18,1006.30
2009,05,05,12,19,1006.30
2009,05,05,12,20,1006.30
2009,05,05,12,21,1006.30
2009,05,05,12,22,1006.30
2009,05,05,12,23,1006.30
2009,05,05,12,24,1006.30
2009,05,05,12,25,1006.30
2009,05,05,12,26,1006.30
2009,05,05,12,27,1006.30
2009,05,05,12,28,1006.30
2009,05,05,12,29,1006.30
2009,05,05,12,30,1006.43
2009,05,05,12,31,1006.44
2009,05,05,12,32,1006.44
2009,05,05,12,33,1006.44
2009,05,05,12,34,1006.44
2009,05,05,12,35,1006.44
2009,05,05,12,36,1006.44
2009,05,05,12,37,1006.44
2009,05,05,12,38,1006.44
2009,05,05,12,39,1006.44
2009,05,05,12,40,1006.44
2009,05,05,12,41,1006.44
2009,05,05,12,42,1006.44
2009,05,05,12,43,1006.44
2009,05,05,12,44,1006.44
2009,05,05,12,45,1006.71
2009,05,05,12,46,1006.71
2009,05,05,12,47,1006.71
2009,05,05,12,48,1006.71
2009,05,05,12,49,1006.71
2009,05,05,12,50,1006.71
2009,05,05,12,51,1006.71
2009,05,05,12,52,1006.71
2009,05,05,12,53,1006.71
2009,05,05,12,54,1006.71
2009,05,05,12,55,1006.71
2009,05,05,12,56,1006.71
2009,05,05,12,57,1006.71
2009,05,05,12,58,1006.71
2009,05,05,12,59,1006.71
2009,05,05,13,00,1007.04
2009,05,05,13,01,1007.04
2009,05,05,13,02,1007.04
2009,05,05,13,03,1007.04
2009,05,05,13,04,1007.04
2009,05,05,13,05,1007.04
2009,05,05,13,06,1007.04
2009,05,05,13,07,1007.04
2009,05,05,13,08,1007.04
2009,05,05,13,09,1007.04
2009,05,05,13,10,1007.04
2009,05,05,13,11,1007.04
2009,05,05,13,12,1007.04
2009,05,05,13,13,1007.04
2009,05,05,13,14,1007.04
2009,05,05,13,15,1007.21
2009,05,05,13,16,1007.21
2009,05,05,13,17,1007.21
2009,05,05,13,18,1007.21
2009,05,05,13,19,1007.21
2009,05,05,13,20,1007.21
2009,05,05,13,21,1007.21
2009,05,05,13,22,1007.21
2009,05,05,13,23,1007.21
2009,05,05,13,24,1007.21
2009,05,05,13,25,1007.21
2009,05,05,13,26,1007.21
2009,05,05,13,27,1007.21
2009,05,05,13,28,1007.21
2009,05,05,13,29,1007.21
2009,05,05,13,30,1007.25
2009,05,05,13,31,1007.25
2009,05,05,13,32,1007.25
2009,05,05,13,33,1007.25
2009,05,05,13,34,1007.25
2009,05,05,13,35,1007.25
2009,05,05,13,36,1007.25
2009,05,05,13,37,1007.25
2009,05,05,13,38,1007.25
2009,05,05,13,39,1007.25
2009,05,05,13,40,1007.25
2009,05,05,13,41,1007.25
2009,05,05,13,42,1007.25
2009,05,05,13,43,1007.25
2009,05,05,13,44,1007.25
2009,05,05,13,45,1007.70
2009,05,05,13,46,1007.72
2009,05,05,13,47,1007.72
2009,05,05,13,48,1007.72
2009,05,05,13,49,1007.72
2009,05,05,13,50,1007.72
2009,05,05,13,51,1007.72
2009,05,05,13,52,1007.72
2009,05,05,13,53,1007.72
2009,05,05,13,54,1007.72
2009,05,05,13,55,1007.72
2009,05,05,13,56,1007.72
2009,05,05,13,57,1007.72
2009,05,05,13,58,1007.72
2009,05,05,13,59,1007.72
2009,05,05,14,00,1008.30
2009,05,05,14,01,1008.30
2009,05,05,14,02,1008.30
2009,05,05,14,03,1008.30
2009,05,05,14,04,1008.30
2009,05,05,14,05,1008.30
2009,05,05,14,06,1008.30
2009,05,05,14,07,1008.30
2009,05,05,14,08,1008.30
2009,05,05,14,09,1008.30
2009,05,05,14,10,1008.30
2009,05,05,14,11,1008.30
2009,05,05,14,12,1008.30
2009,05,05,14,13,1008.30
2009,05,05,14,14,1008.30
2009,05,05,14,15,1008.70
2009,05,05,14,16,1008.70
2009,05,05,14,17,1008.70
2009,05,05,14,18,1008.70
2009,05,05,14,19,1008.70
2009,05,05,14,20,1008.70
2009,05,05,14,21,1008.70
2009,05,05,14,22,1008.70
2009,05,05,14,23,1008.70
2009,05,05,14,24,1008.70
2009,05,05,14,25,1008.70
2009,05,05,14,26,1008.70
2009,05,05,14,27,1008.70
2009,05,05,14,28,1008.70
2009,05,05,14,29,1008.70
2009,05,05,14,30,1008.84
2009,05,05,14,31,1008.84
2009,05,05,14,32,1008.84
2009,05,05,14,33,1008.84
2009,05,05,14,34,1008.84
2009,05,05,14,35,1008.84
2009,05,05,14,36,1008.84
2009,05,05,14,37,1008.84
2009,05,05,14,38,1008.84
2009,05,05,14,39,1008.84
2009,05,05,14,40,1008.84
2009,05,05,14,41,1008.84
2009,05,05,14,42,1008.84
2009,05,05,14,43,1008.84
2009,05,05,14,44,1008.84
2009,05,05,14,45,1009.26
2009,05,05,14,46,1009.28
2009,05,05,14,47,1009.28
2009,05,05,14,48,1009.28
2009,05,05,14,49,1009.28
2009,05,05,14,50,1009.28
2009,05,05,14,51,1009.28
2009,05,05,14,52,1009.28
2009,05,05,14,53,1009.28
2009,05,05,14,54,1009.28
2009,05,05,14,55,1009.28
2009,05,05,14,56,1009.28
2009,05,05,14,57,1009.28
2009,05,05,14,58,1009.28
2009,05,05,14,59,1009.28
2009,05,05,15,00,1009.42
2009,05,05,15,01,1009.42
2009,05,05,15,02,1009.42
2009,05,05,15,03,1009.42
2009,05,05,15,04,1009.42
2009,05,05,15,05,1009.42
2009,05,05,15,06,1009.42
2009,05,05,15,07,1009.42
2009,05,05,15,08,1009.42
2009,05,05,15,09,1009.42
2009,05,05,15,10,1009.42
2009,05,05,15,11,1009.42
2009,05,05,15,12,1009.42
2009,05,05,15,13,1009.42
2009,05,05,15,14,1009.42
2009,05,05,15,15,1009.64
2009,05,05,15,16,1009.65
2009,05,05,15,17,1009.65
2009,05,05,15,18,1009.65
2009,05,05,15,19,1009.65
2009,05,05,15,20,1009.65
2009,05,05,15,21,1009.65
2009,05,05,15,22,1009.65
2009,05,05,15,23,1009.65
2009,05,05,15,24,1009.65
2009,05,05,15,25,1009.65
2009,05,05,15,26,1009.65
2009,05,05,15,27,1009.65
2009,05,05,15,28,1009.65
2009,05,05,15,29,1009.65
2009,05,05,15,30,1009.79
2009,05,05,15,31,1009.79
2009,05,05,15,32,1009.79
2009,05,05,15,33,1009.79
2009,05,05,15,34,1009.79
2009,05,05,15,35,1009.79
2009,05,05,15,36,1009.79
2009,05,05,15,37,1009.79
2009,05,05,15,38,1009.79
2009,05,05,15,39,1009.79
2009,05,05,15,40,1009.79
2009,05,05,15,41,1009.79
2009,05,05,15,42,1009.79
2009,05,05,15,43,1009.79
2009,05,05,15,44,1009.79
2009,05,05,15,45,1009.82
2009,05,05,15,46,1009.82
2009,05,05,15,47,1009.82
2009,05,05,15,48,1009.82
2009,05,05,15,49,1009.82
2009,05,05,15,50,1009.82
2009,05,05,15,51,1009.82
2009,05,05,15,52,1009.82
2009,05,05,15,53,1009.82
2009,05,05,15,54,1009.82
2009,05,05,15,55,1009.82
2009,05,05,15,56,1009.82
2009,05,05,15,57,1009.82
2009,05,05,15,58,1009.82
2009,05,05,15,59,1009.82
2009,05,05,16,00,1009.86
2009,05,05,16,01,1009.86
2009,05,05,16,02,1009.86
2009,05,05,16,03,1009.86
2009,05,05,16,04,1009.86
2009,05,05,16,05,1009.86
2009,05,05,16,06,1009.86
2009,05,05,16,07,1009.86
2009,05,05,16,08,1009.86
2009,05,05,16,09,1009.86
2009,05,05,16,10,1009.86
2009,05,05,16,11,1009.86
2009,05,05,16,12,1009.86
2009,05,05,16,13,1009.86
2009,05,05,16,14,1009.86
2009,05,05,16,15,1009.92